[Date Prev][Date Next][Thread Prev][Thread Next] - [Date Index][Thread Index][Author Index]

2 Line ISS Keps 5-30



ISS
1 25544U 98067A   04151.39201389  .00018456  00000-0  16403-3 0  8895
2 25544  51.6326  56.4312 0006004 170.3785 342.4948 15.68563768315522


----
Via the sarex mailing list at AMSAT.ORG courtesy of AMSAT-NA.
To unsubscribe, send "unsubscribe sarex" to Majordomo@amsat.org



AMSAT Top AMSAT Home